[[{"header":{"parameterUnit":"m.s-1","parameterCategory":1,"la1":30.2991,"la2":30.254,"lo1":-89.0895,"lo2":-89.0444,"dy":0.0017,"dx":0.0017,"nx":28,"ny":28,"refTime":"2023-07-23T03:00:00:Z","depth":0,"parameterNumber":2,"parameterNumberName":"U-component_of_WINDS"},"data":[0,0,0,0,0,0,0,0,0,0,0,0,0,0,0,0,0,0,0,0,0,0,0,0,0,0,0,0,0,0,0,0,0,0,0,0,0,0,0,0,0,0,0,0,0,0,0,0,0,0,0,0,0,0,0,0,0,0,2.2569,2.2572,0,2.2891,2.2895,2.2898,2.3004,2.3002,2.3001,2.2999,2.3327,2.3337,2.3347,0,0,0,0,0,0,0,0,0,0,0,0,0,2.2041,2.205,2.2568,2.2572,2.2576,2.289,2.2895,2.2899,2.3004,2.3002,2.3,2.2999,2.3324,2.3335,2.3348,0,0,0,0,0,0,0,0,0,0,0,0,0,2.2307,2.2053,2.2567,2.2666,2.2679,2.2889,2.2895,2.29,2.3004,2.3002,2.3,2.2998,2.332,2.3334,2.3349,2.3484,0,0,2.3395,2.3402,0,0,0,0,0,0,0,0,2.2292,2.2326,2.2648,2.266,2.2674,2.2905,2.2829,2.3096,2.3005,2.288,2.2999,2.2997,2.3188,2.3214,2.3279,2.3499,2.3513,2.3396,2.3406,2.3412,2.3416,0,0,0,0,0,0,0,2.2273,2.2313,2.2696,2.2652,2.2668,2.2694,2.273,2.288,2.3042,2.2891,2.29,2.2936,2.3195,2.3264,2.3287,2.3518,2.3396,2.3409,2.3419,2.3425,2.3868,2.3871,0,0,0,0,0,0,2.2239,2.2297,2.2686,2.2705,2.2474,2.2705,2.2745,2.2833,2.3041,2.307,2.2938,2.294,2.3239,2.327,2.3299,2.3473,2.3412,2.3426,2.3435,2.3866,2.3869,2.3872,0,0,0,0,0,0,2.2227,2.2272,2.2673,2.2504,2.2557,2.2717,2.2814,2.284,2.291,2.3076,2.3105,2.2979,2.3239,2.3278,2.3438,2.3486,2.3433,2.3446,2.3862,2.3867,2.387,2.382,0,0,0,0,0,0,2.2211,2.2267,2.2321,2.2504,2.2565,2.2806,2.2817,2.2848,2.2936,2.2942,2.3123,2.315,2.324,2.3415,2.3453,2.3506,2.3458,2.3859,2.3864,2.3869,2.3818,2.3822,2.3825,0,0,0,0,0,2.2192,2.2293,2.2323,2.2369,2.2636,2.2809,2.2844,2.2946,2.2939,2.2994,2.3101,2.3145,2.3474,2.3431,2.3474,2.3532,2.3856,2.3863,2.3869,2.3817,2.3821,2.3825,0,0,0,0,0,0,2.211,2.2319,2.2354,2.2518,2.2645,2.2826,2.2899,2.2947,2.3078,2.3078,2.3199,2.3239,2.339,2.3477,2.3425,2.3675,2.3667,2.3682,2.3613,2.3618,2.3622,2.3599,2.3471,0,0,0,0,0,2.211,2.2235,2.241,2.2537,2.2599,2.2738,2.2817,2.2885,2.3021,2.3075,2.3194,2.3324,2.3457,2.3542,2.3674,2.3831,2.3873,2.3892,2.3895,2.3897,2.391,2.4001,2.4013,2.3892,2.3892,2.3892,0,0,2.2113,2.2243,2.2314,2.2524,2.2631,2.2756,2.2782,2.2914,2.3008,2.3095,2.3255,2.3346,2.3499,2.3658,2.3735,2.3736,2.3952,2.3905,2.3906,2.3917,2.4009,2.402,2.403,2.3897,2.3896,2.3895,0,0,2.2184,2.2294,2.2413,2.2519,2.2681,2.2772,2.28,2.2976,2.304,2.3202,2.327,2.3384,2.361,2.3717,2.3801,2.3912,2.3958,2.3951,2.397,2.4058,2.4068,2.4077,2.4118,2.4132,2.3962,2.3962,2.3962,0,2.2167,2.2361,2.2467,2.2597,2.2687,2.2772,2.2894,2.2991,2.3187,2.3247,2.3245,2.3533,2.3641,2.3828,2.3855,2.392,2.3957,2.3932,2.4058,2.4068,2.4078,2.4119,2.4134,2.3961,2.3961,2.3961,2.3961,0,2.2333,2.2465,2.2542,2.2731,2.2829,2.2953,2.3079,2.3166,2.3225,2.3316,2.3481,2.3614,2.3775,2.3824,2.3882,2.402,2.4016,2.4034,2.403,2.4086,2.4127,2.4143,2.3958,2.3959,2.3959,2.396,0,0,2.2362,2.2608,2.2635,2.2722,2.2906,2.3011,2.3138,2.3297,2.337,2.3502,2.3613,2.3803,2.3821,2.3916,2.3987,2.4064,2.4146,2.4074,2.4079,2.4084,2.4309,2.4296,2.4312,2.4177,2.418,2.4183,2.4297,0,2.2458,2.2692,2.2792,2.298,2.3104,2.3186,2.3298,2.3423,2.3512,2.363,2.3728,2.3861,2.3874,2.3933,2.4012,2.4119,2.4193,2.4112,2.4283,2.4288,2.4244,2.4333,2.432,2.4421,2.4313,2.4316,2.4318,0,2.2602,2.2736,2.2936,2.3107,2.3163,2.3262,2.3416,2.3527,2.3671,2.373,2.3836,2.3904,2.4041,2.4026,2.4218,2.4161,2.4236,2.4299,2.4306,2.4327,2.4308,2.436,2.4455,2.4471,2.4344,2.4342,2.434,0,2.2606,2.2836,2.2987,2.3058,2.326,2.3328,2.3415,2.3556,2.3645,2.3779,2.3839,2.3986,2.4068,2.418,2.4286,2.4265,2.4469,2.4462,2.4524,2.4521,2.4565,2.4561,2.4676,2.4609,2.4608,2.4608,2.4608,0,2.2705,2.2825,2.2991,2.3084,2.3221,2.3334,2.3466,2.3559,2.3684,2.3796,2.3875,2.3978,2.411,2.4231,2.4314,2.4462,2.4497,2.455,2.4571,2.4545,2.4538,2.4597,2.4594,2.4612,2.4611,2.4611,2.461,0,2.2734,2.285,2.302,2.3197,2.3244,2.3337,2.3489,2.3582,2.3674,2.3815,2.3855,2.4,2.4146,2.4262,2.4452,2.4508,2.4664,2.4686,2.4616,2.4628,2.4684,2.4678,2.4843,2.4871,2.4781,2.4782,2.4783,0,2.2791,2.2885,2.3073,2.3154,2.324,2.337,2.3461,2.3576,2.3668,2.3839,2.3911,2.4063,2.4191,2.442,2.4542,2.4689,2.4717,2.4764,2.4739,2.471,2.4721,2.4715,2.4726,2.4768,2.4768,2.4768,2.4769,0,2.288,2.2932,2.3062,2.3212,2.3319,2.3443,2.3568,2.3629,2.3766,2.3866,2.4016,2.4115,2.431,2.446,2.4619,2.4709,2.4763,2.4775,2.4798,2.4773,2.473,2.4757,2.4627,2.4772,2.4771,2.4771,2.4771,2.4771,2.2927,2.3015,2.3161,2.3303,2.3409,2.3524,2.3621,2.3725,2.3853,2.4021,2.408,2.4235,2.4377,2.4596,2.4687,2.4811,2.4815,2.4846,2.4855,2.4862,2.486,2.4707,2.484,2.484,2.484,2.484,2.484,0,2.3022,2.312,2.3249,2.3422,2.3534,2.3573,2.3714,2.3805,2.394,2.4068,2.4192,2.4366,2.4512,2.4645,2.4798,2.4871,2.49,2.4908,2.4905,2.4925,2.4847,2.4813,2.4883,2.4883,2.4882,2.4882,2.4882,2.4882,2.3085,2.3238,2.3307,2.3513,2.361,2.3764,2.3841,2.3947,2.405,2.4241,2.4363,2.4448,2.4579,2.4742,2.4878,2.4914,2.4968,2.497,2.5012,2.4936,2.4931,2.4925,2.4895,2.498,2.498,2.5081,2.5082,2.5083]},{"header":{"parameterUnit":"m.s-1","parameterCategory":1,"la1":30.2991,"la2":30.254,"lo1":-89.0895,"lo2":-89.0444,"dy":0.0017,"dx":0.0017,"nx":28,"ny":28,"refTime":"2023-07-23T03:00:00:Z","depth":0,"parameterNumber":3,"parameterNumberName":"V-component_of_WINDS"},"data":[0,0,0,0,0,0,0,0,0,0,0,0,0,0,0,0,0,0,0,0,0,0,0,0,0,0,0,0,0,0,0,0,0,0,0,0,0,0,0,0,0,0,0,0,0,0,0,0,0,0,0,0,0,0,0,0,0,0,0.4755,0.4757,0,0.4978,0.498,0.4983,0.5003,0.5,0.4998,0.4995,0.5233,0.5241,0.525,0,0,0,0,0,0,0,0,0,0,0,0,0,0.4353,0.436,0.4755,0.4757,0.476,0.4977,0.498,0.4983,0.5003,0.5,0.4997,0.4994,0.523,0.524,0.5251,0,0,0,0,0,0,0,0,0,0,0,0,0,0.4547,0.4362,0.4754,0.4796,0.4802,0.4977,0.4981,0.4984,0.5004,0.5,0.4996,0.4993,0.5227,0.5239,0.5252,0.5404,0,0,0.5291,0.5297,0,0,0,0,0,0,0,0,0.4536,0.4562,0.4787,0.4793,0.48,0.4958,0.4926,0.5125,0.5005,0.4927,0.4995,0.4991,0.5145,0.5165,0.5215,0.5415,0.5425,0.5293,0.53,0.5306,0.5309,0,0,0,0,0,0,0,0.4522,0.4552,0.4843,0.479,0.4798,0.4806,0.4829,0.4964,0.5054,0.4934,0.4936,0.4961,0.5148,0.5202,0.522,0.5428,0.5292,0.5304,0.5311,0.5317,0.5764,0.5768,0,0,0,0,0,0,0.45,0.4541,0.4836,0.485,0.4656,0.4816,0.4842,0.4912,0.5053,0.507,0.4964,0.4961,0.5182,0.5205,0.5229,0.5417,0.5306,0.5318,0.5325,0.576,0.5765,0.5769,0,0,0,0,0,0,0.4491,0.4526,0.4827,0.4696,0.4735,0.4826,0.4904,0.4918,0.4972,0.5075,0.5092,0.5002,0.518,0.5211,0.5359,0.5426,0.5324,0.5335,0.5755,0.5761,0.5767,0.5794,0,0,0,0,0,0,0.4479,0.4523,0.458,0.4697,0.4742,0.4953,0.4908,0.4925,0.4993,0.4991,0.5116,0.5133,0.518,0.534,0.5372,0.5442,0.5345,0.5749,0.5758,0.5765,0.5788,0.58,0.5811,0,0,0,0,0,0.4465,0.4581,0.4583,0.4619,0.4815,0.4956,0.4982,0.5031,0.4998,0.5058,0.5124,0.5129,0.5411,0.5355,0.5391,0.5466,0.5746,0.5755,0.5764,0.5783,0.5798,0.5811,0,0,0,0,0,0,0.4475,0.4597,0.4601,0.4758,0.4846,0.4959,0.5037,0.5045,0.5148,0.5143,0.52,0.5229,0.5376,0.5435,0.537,0.5619,0.5575,0.5593,0.5577,0.5592,0.5604,0.5589,0.5356,0,0,0,0,0,0.4494,0.4595,0.4698,0.4827,0.487,0.4945,0.5009,0.5037,0.5133,0.5171,0.5248,0.5343,0.5453,0.5525,0.5632,0.5793,0.5823,0.5862,0.5874,0.5883,0.5899,0.5991,0.601,0.58,0.58,0.58,0,0,0.4537,0.4617,0.4678,0.483,0.4902,0.5009,0.4977,0.5092,0.5172,0.519,0.5335,0.5394,0.5503,0.5659,0.5732,0.5713,0.5962,0.5895,0.5901,0.5913,0.6002,0.6022,0.604,0.5807,0.5805,0.5804,0,0,0.4672,0.474,0.4855,0.4926,0.5033,0.5081,0.5108,0.5219,0.5259,0.5403,0.5419,0.5516,0.5703,0.5781,0.5845,0.6002,0.6012,0.6035,0.6099,0.6187,0.6204,0.6219,0.6279,0.6299,0.6049,0.6049,0.6049,0,0.4714,0.4873,0.4914,0.5028,0.5095,0.5109,0.5228,0.5295,0.5434,0.5481,0.5455,0.569,0.5765,0.594,0.5977,0.6027,0.6063,0.6025,0.6197,0.6213,0.6228,0.6286,0.6307,0.6051,0.6051,0.6051,0.6051,0,0.492,0.5029,0.5109,0.5238,0.5314,0.5429,0.549,0.5562,0.5582,0.5633,0.5781,0.5869,0.5994,0.6036,0.6059,0.6214,0.62,0.6185,0.6143,0.625,0.6305,0.6327,0.6055,0.6054,0.6053,0.6053,0,0,0.5075,0.522,0.5249,0.5308,0.5424,0.5511,0.5626,0.5744,0.5806,0.5899,0.6,0.6155,0.6141,0.6214,0.6244,0.632,0.6443,0.6297,0.6301,0.6325,0.6623,0.6637,0.6662,0.6446,0.645,0.6454,0.6615,0,0.5226,0.543,0.5468,0.5647,0.575,0.5762,0.5862,0.5946,0.5995,0.6091,0.6146,0.6257,0.6228,0.6272,0.6347,0.6412,0.6504,0.64,0.6545,0.655,0.6524,0.669,0.6707,0.6855,0.6636,0.664,0.6643,0,0.5433,0.5526,0.5714,0.5814,0.5859,0.5949,0.606,0.6149,0.6244,0.6274,0.6352,0.6372,0.6495,0.644,0.6611,0.6539,0.66,0.6639,0.6646,0.6668,0.6608,0.6721,0.6903,0.6927,0.6676,0.6674,0.6671,0,0.5532,0.5704,0.5839,0.5888,0.6008,0.6071,0.6124,0.6214,0.6282,0.6379,0.6424,0.6534,0.6596,0.6682,0.6732,0.6688,0.69,0.685,0.6932,0.6931,0.6983,0.698,0.7183,0.7011,0.7011,0.7011,0.701,0,0.5701,0.5817,0.5885,0.5969,0.6099,0.614,0.6268,0.6321,0.64,0.6496,0.6511,0.6602,0.6659,0.6758,0.6798,0.6934,0.6961,0.6992,0.7002,0.6994,0.6991,0.704,0.7033,0.7017,0.7015,0.7014,0.7013,0,0.5838,0.5888,0.6036,0.6134,0.6162,0.6253,0.6339,0.6422,0.6467,0.6588,0.6619,0.6693,0.6809,0.6865,0.701,0.7037,0.7193,0.7194,0.7161,0.7167,0.7248,0.7241,0.7494,0.7531,0.7329,0.7331,0.7332,0,0.5946,0.6035,0.614,0.6204,0.6257,0.6359,0.6427,0.647,0.6541,0.6652,0.6722,0.6837,0.6933,0.7118,0.7187,0.7298,0.7305,0.7385,0.7323,0.7311,0.7312,0.7309,0.7319,0.74,0.7401,0.7403,0.7404,0,0.6134,0.6153,0.6248,0.6352,0.6431,0.6516,0.66,0.6651,0.6707,0.6786,0.6903,0.6976,0.7121,0.7238,0.7352,0.741,0.7419,0.7422,0.7448,0.7444,0.7423,0.744,0.7198,0.7418,0.7417,0.7416,0.7415,0.7414,0.6264,0.6343,0.6429,0.6535,0.66,0.6676,0.6759,0.6812,0.6909,0.7029,0.7047,0.7173,0.7263,0.7417,0.7477,0.7577,0.7559,0.7596,0.7606,0.7616,0.7623,0.74,0.7597,0.7597,0.7597,0.7596,0.7596,0,0.6457,0.6511,0.6606,0.672,0.6803,0.6796,0.6887,0.6958,0.7067,0.7148,0.724,0.7374,0.7485,0.7559,0.7672,0.7738,0.7745,0.7767,0.7766,0.778,0.763,0.7599,0.776,0.776,0.776,0.7759,0.7759,0.7759,0.6568,0.6702,0.6729,0.6896,0.695,0.707,0.7123,0.7194,0.7258,0.7406,0.7497,0.7542,0.7621,0.7739,0.7841,0.786,0.7903,0.7927,0.7946,0.7807,0.779,0.7774,0.7745,0.7934,0.7935,0.8088,0.809,0.8091]}]]